[[{"header":{"parameterUnit":"m.s-1","parameterCategory":1,"la1":30.2991,"la2":30.254,"lo1":-89.0895,"lo2":-89.0444,"dy":0.0017,"dx":0.0017,"nx":28,"ny":28,"refTime":"2025-12-28T03:00:00:Z","depth":0,"parameterNumber":2,"parameterNumberName":"U-component_of_WINDS"},"data":[0,0,0,0,0,0,0,0,0,0,0,0,0,0,0,0,0,0,0,0,0,0,0,0,0,0,0,0,0,0,0,0,0,0,0,0,0,0,0,0,0,0,0,0,0,0,0,0,0,0,0,0,0,0,0,0,0,0,-0.1022,-0.102,0,-0.0901,-0.09,-0.0899,-0.085,-0.0851,-0.0851,-0.0851,-0.0726,-0.0722,-0.0718,0,0,0,0,0,0,0,0,0,0,0,0,0,-0.1207,-0.1204,-0.1022,-0.102,-0.1019,-0.0902,-0.09,-0.0898,-0.085,-0.0851,-0.0851,-0.0851,-0.0727,-0.0722,-0.0718,0,0,0,0,0,0,0,0,0,0,0,0,0,-0.1111,-0.1203,-0.1022,-0.0981,-0.0976,-0.0902,-0.09,-0.0898,-0.085,-0.0851,-0.0851,-0.0851,-0.0728,-0.0723,-0.0718,-0.0675,0,0,-0.0701,-0.0699,0,0,0,0,0,0,0,0,-0.1116,-0.1104,-0.0988,-0.0983,-0.0978,-0.0891,-0.0919,-0.0823,-0.085,-0.0898,-0.0851,-0.0852,-0.078,-0.0771,-0.0747,-0.0669,-0.0664,-0.07,-0.0697,-0.0695,-0.0693,0,0,0,0,0,0,0,-0.1123,-0.1109,-0.0974,-0.0987,-0.098,-0.0967,-0.0954,-0.0901,-0.0838,-0.0894,-0.089,-0.0876,-0.0777,-0.0752,-0.0744,-0.0662,-0.0701,-0.0696,-0.0692,-0.069,-0.0542,-0.0541,0,0,0,0,0,0,-0.1137,-0.1115,-0.0978,-0.097,-0.105,-0.0964,-0.0949,-0.0919,-0.0838,-0.0827,-0.0876,-0.0875,-0.0761,-0.075,-0.0739,-0.0683,-0.0695,-0.069,-0.0687,-0.0543,-0.0542,-0.0541,0,0,0,0,0,0,-0.1141,-0.1125,-0.0983,-0.1041,-0.1022,-0.096,-0.0926,-0.0916,-0.0891,-0.0825,-0.0813,-0.0862,-0.0761,-0.0747,-0.0691,-0.0678,-0.0687,-0.0682,-0.0544,-0.0543,-0.0542,-0.0571,0,0,0,0,0,0,-0.1147,-0.1127,-0.1111,-0.1042,-0.1019,-0.0938,-0.0926,-0.0913,-0.0882,-0.0879,-0.0809,-0.0798,-0.076,-0.07,-0.0686,-0.0671,-0.0678,-0.0544,-0.0543,-0.0542,-0.0571,-0.0572,-0.0572,0,0,0,0,0,-0.1153,-0.1124,-0.111,-0.1094,-0.0998,-0.0937,-0.0924,-0.0883,-0.0881,-0.0864,-0.0821,-0.08,-0.0682,-0.0694,-0.0678,-0.0661,-0.0545,-0.0543,-0.0542,-0.0571,-0.0572,-0.0572,0,0,0,0,0,0,-0.1193,-0.1114,-0.1098,-0.1046,-0.0999,-0.0929,-0.0906,-0.0885,-0.0837,-0.0835,-0.0785,-0.077,-0.0718,-0.0684,-0.07,-0.0616,-0.0612,-0.0607,-0.0639,-0.0639,-0.0639,-0.0648,-0.0674,0,0,0,0,0,-0.1195,-0.1153,-0.1086,-0.1046,-0.1024,-0.0969,-0.0941,-0.0913,-0.0862,-0.0842,-0.0795,-0.0746,-0.0697,-0.0667,-0.0619,-0.0567,-0.055,-0.0547,-0.0547,-0.0548,-0.0544,-0.0512,-0.051,-0.0536,-0.0536,-0.0536,0,0,-0.12,-0.1152,-0.1128,-0.1053,-0.1013,-0.097,-0.0953,-0.0908,-0.0874,-0.0834,-0.0779,-0.0744,-0.0685,-0.0631,-0.0605,-0.0601,-0.0533,-0.0546,-0.0547,-0.0542,-0.0511,-0.0508,-0.0506,-0.0535,-0.0535,-0.0535,0,0,-0.1186,-0.1146,-0.1108,-0.1069,-0.1009,-0.0973,-0.0964,-0.0897,-0.0872,-0.0816,-0.0785,-0.0744,-0.0663,-0.0622,-0.059,-0.0561,-0.0539,-0.0547,-0.0547,-0.0517,-0.0515,-0.0513,-0.0501,-0.0498,-0.0543,-0.0543,-0.0543,0,-0.12,-0.1134,-0.1091,-0.1047,-0.1014,-0.0977,-0.0937,-0.0901,-0.0828,-0.0806,-0.0803,-0.0699,-0.0657,-0.0592,-0.0585,-0.0561,-0.0548,-0.0554,-0.0519,-0.0517,-0.0514,-0.0502,-0.0498,-0.0544,-0.0544,-0.0544,-0.0544,0,-0.1152,-0.1107,-0.1083,-0.1014,-0.0979,-0.0937,-0.0887,-0.0856,-0.0831,-0.0795,-0.0738,-0.0687,-0.0627,-0.061,-0.0585,-0.0541,-0.054,-0.0529,-0.0524,-0.0514,-0.0501,-0.0497,-0.0546,-0.0546,-0.0545,-0.0545,0,0,-0.116,-0.1068,-0.1059,-0.1027,-0.0958,-0.0922,-0.0878,-0.082,-0.0794,-0.0746,-0.0707,-0.0638,-0.0627,-0.0592,-0.0562,-0.0536,-0.0514,-0.0527,-0.0525,-0.0526,-0.0461,-0.0469,-0.0465,-0.05,-0.0499,-0.0498,-0.0466,0,-0.1136,-0.1057,-0.1016,-0.0954,-0.0911,-0.0874,-0.0836,-0.0789,-0.0754,-0.0712,-0.0673,-0.0625,-0.0615,-0.0593,-0.0565,-0.0523,-0.05,-0.0525,-0.0462,-0.046,-0.0476,-0.0459,-0.0467,-0.0439,-0.0461,-0.046,-0.0459,0,-0.1097,-0.1049,-0.0983,-0.0918,-0.0898,-0.0865,-0.0808,-0.0768,-0.0714,-0.069,-0.065,-0.0621,-0.0573,-0.0572,-0.0504,-0.0521,-0.0493,-0.0468,-0.0466,-0.0458,-0.0458,-0.0449,-0.043,-0.0425,-0.0452,-0.0452,-0.0453,0,-0.1108,-0.1026,-0.0976,-0.0949,-0.0873,-0.085,-0.0817,-0.0763,-0.0731,-0.0681,-0.0659,-0.0604,-0.0574,-0.0532,-0.0488,-0.0492,-0.0424,-0.042,-0.0402,-0.0403,-0.0388,-0.0389,-0.0363,-0.0372,-0.0372,-0.0373,-0.0373,0,-0.1085,-0.1045,-0.0979,-0.0948,-0.0902,-0.0856,-0.0812,-0.0776,-0.0728,-0.0688,-0.0654,-0.0617,-0.0562,-0.0519,-0.0484,-0.0432,-0.0419,-0.0398,-0.0389,-0.04,-0.0403,-0.038,-0.038,-0.0371,-0.0372,-0.0372,-0.0372,0,-0.1089,-0.1043,-0.0985,-0.0917,-0.0899,-0.0868,-0.081,-0.0778,-0.0741,-0.0691,-0.0677,-0.0619,-0.0566,-0.0518,-0.0448,-0.0424,-0.0371,-0.0361,-0.0389,-0.0384,-0.0368,-0.037,-0.0326,-0.0317,-0.0334,-0.0334,-0.0333,0,-0.1076,-0.1045,-0.0974,-0.0945,-0.0913,-0.0867,-0.0833,-0.0787,-0.0753,-0.0689,-0.0664,-0.0608,-0.0561,-0.0477,-0.0428,-0.0374,-0.0361,-0.0349,-0.0353,-0.0365,-0.0359,-0.0361,-0.0357,-0.0349,-0.0349,-0.0349,-0.0349,0,-0.1059,-0.1038,-0.0992,-0.0937,-0.0898,-0.0853,-0.0806,-0.0784,-0.0729,-0.0693,-0.0638,-0.0602,-0.0529,-0.0474,-0.0414,-0.0379,-0.0354,-0.0349,-0.0341,-0.0352,-0.037,-0.0359,-0.0389,-0.035,-0.035,-0.035,-0.035,-0.035,-0.1053,-0.1023,-0.0968,-0.0918,-0.0878,-0.0835,-0.0801,-0.076,-0.0714,-0.0652,-0.0627,-0.0571,-0.0516,-0.0433,-0.0398,-0.0353,-0.0348,-0.0338,-0.0335,-0.0333,-0.0334,-0.0378,-0.0342,-0.0342,-0.0342,-0.0342,-0.0342,0,-0.1033,-0.0996,-0.095,-0.0886,-0.0845,-0.0827,-0.0774,-0.0741,-0.0693,-0.0644,-0.0598,-0.0535,-0.0481,-0.0428,-0.0371,-0.0345,-0.0332,-0.0331,-0.0332,-0.0324,-0.0342,-0.0354,-0.0342,-0.0342,-0.0342,-0.0342,-0.0342,-0.0342,-0.1018,-0.0966,-0.0938,-0.0865,-0.0828,-0.0773,-0.0744,-0.0704,-0.0665,-0.0596,-0.0551,-0.0517,-0.0466,-0.0405,-0.0354,-0.034,-0.032,-0.0322,-0.0305,-0.0322,-0.0323,-0.0323,-0.0334,-0.0318,-0.0318,-0.029,-0.029,-0.0289]},{"header":{"parameterUnit":"m.s-1","parameterCategory":1,"la1":30.2991,"la2":30.254,"lo1":-89.0895,"lo2":-89.0444,"dy":0.0017,"dx":0.0017,"nx":28,"ny":28,"refTime":"2025-12-28T03:00:00:Z","depth":0,"parameterNumber":3,"parameterNumberName":"V-component_of_WINDS"},"data":[0,0,0,0,0,0,0,0,0,0,0,0,0,0,0,0,0,0,0,0,0,0,0,0,0,0,0,0,0,0,0,0,0,0,0,0,0,0,0,0,0,0,0,0,0,0,0,0,0,0,0,0,0,0,0,0,0,0,2.3327,2.3326,0,2.3298,2.3298,2.3297,2.3291,2.3291,2.3291,2.3292,2.3258,2.3256,2.3255,0,0,0,0,0,0,0,0,0,0,0,0,0,2.3373,2.3372,2.3327,2.3326,2.3326,2.3298,2.3298,2.3297,2.3291,2.3291,2.3291,2.3292,2.3258,2.3257,2.3255,0,0,0,0,0,0,0,0,0,0,0,0,0,2.3349,2.3371,2.3327,2.332,2.3319,2.3298,2.3297,2.3297,2.3291,2.3291,2.3292,2.3292,2.3258,2.3257,2.3255,2.3238,0,0,2.325,2.3249,0,0,0,0,0,0,0,0,2.335,2.3347,2.3321,2.332,2.3319,2.3298,2.3301,2.3277,2.3291,2.3301,2.3292,2.3292,2.3271,2.3268,2.3262,2.3236,2.3235,2.325,2.3249,2.3248,2.3248,0,0,0,0,0,0,0,2.3352,2.3348,2.3315,2.3321,2.3319,2.3317,2.3314,2.3297,2.3284,2.33,2.33,2.3297,2.327,2.3263,2.3261,2.3234,2.325,2.3248,2.3247,2.3247,2.3193,2.3193,0,0,0,0,0,0,2.3355,2.335,2.3316,2.3314,2.3336,2.3315,2.3312,2.3305,2.3284,2.3282,2.3297,2.3297,2.3266,2.3263,2.326,2.3238,2.3248,2.3247,2.3246,2.3194,2.3193,2.3193,0,0,0,0,0,0,2.3356,2.3352,2.3317,2.3332,2.3327,2.3314,2.3306,2.3304,2.3297,2.3282,2.3279,2.3292,2.3266,2.3262,2.3244,2.3237,2.3246,2.3244,2.3194,2.3194,2.3193,2.3196,0,0,0,0,0,0,2.3358,2.3353,2.3347,2.3332,2.3327,2.3303,2.3306,2.3303,2.3295,2.3295,2.3277,2.3274,2.3266,2.3246,2.3242,2.3235,2.3243,2.3195,2.3194,2.3193,2.3196,2.3196,2.3195,0,0,0,0,0,2.3359,2.3348,2.3347,2.3343,2.332,2.3303,2.33,2.3292,2.3294,2.3288,2.3278,2.3275,2.3238,2.3244,2.324,2.3232,2.3195,2.3194,2.3193,2.3197,2.3196,2.3195,0,0,0,0,0,0,2.3362,2.3346,2.3345,2.3329,2.3317,2.3302,2.3294,2.3291,2.3278,2.3278,2.3267,2.3263,2.3246,2.3237,2.3244,2.3214,2.3217,2.3215,2.3221,2.322,2.3219,2.3222,2.3242,0,0,0,0,0,2.3361,2.335,2.3336,2.3323,2.3318,2.3307,2.3299,2.3294,2.3282,2.3276,2.3265,2.3252,2.3237,2.3228,2.3214,2.3195,2.319,2.3187,2.3186,2.3186,2.3184,2.3173,2.3171,2.319,2.319,2.319,0,0,2.3358,2.3348,2.3342,2.3324,2.3314,2.3302,2.3303,2.329,2.3281,2.3274,2.3257,2.3248,2.3232,2.3213,2.3204,2.3205,2.3178,2.3184,2.3184,2.3183,2.3172,2.317,2.3169,2.3189,2.3189,2.3189,0,0,2.3347,2.3339,2.3327,2.3318,2.3304,2.3297,2.3294,2.3279,2.3274,2.3256,2.3251,2.3239,2.3214,2.3203,2.3194,2.3179,2.3175,2.3174,2.317,2.316,2.3158,2.3157,2.3151,2.315,2.3173,2.3173,2.3173,0,2.3345,2.3328,2.3321,2.3309,2.3301,2.3296,2.3283,2.3274,2.3256,2.325,2.3251,2.322,2.3209,2.3188,2.3184,2.3177,2.3173,2.3177,2.3159,2.3158,2.3157,2.3151,2.3149,2.3173,2.3173,2.3173,2.3173,0,2.3326,2.3314,2.3306,2.3291,2.3281,2.3269,2.3259,2.325,2.3246,2.3238,2.322,2.3206,2.319,2.3184,2.3179,2.3162,2.3163,2.3162,2.3164,2.3155,2.315,2.3148,2.3173,2.3173,2.3173,2.3173,0,0,2.3316,2.3297,2.3294,2.3287,2.3272,2.3262,2.3248,2.3233,2.3226,2.3213,2.3201,2.3181,2.318,2.317,2.3163,2.3154,2.3143,2.3154,2.3154,2.3153,2.3123,2.3124,2.3122,2.314,2.3139,2.3139,2.3124,0,2.3303,2.3282,2.3275,2.3256,2.3245,2.324,2.3228,2.3216,2.3208,2.3196,2.3187,2.3173,2.3173,2.3166,2.3157,2.3146,2.3137,2.3147,2.3128,2.3127,2.3133,2.3119,2.312,2.3107,2.3122,2.3122,2.3121,0,2.3286,2.3275,2.3256,2.3242,2.3237,2.3227,2.3212,2.3201,2.3187,2.3182,2.3171,2.3165,2.315,2.3153,2.3131,2.3138,2.3129,2.3123,2.3122,2.312,2.3124,2.3117,2.3102,2.31,2.3118,2.3118,2.3119,0,2.3281,2.3261,2.3247,2.3241,2.3224,2.3217,2.321,2.3196,2.3188,2.3174,2.3168,2.3153,2.3144,2.3131,2.3121,2.3124,2.31,2.3102,2.3094,2.3095,2.309,2.309,2.3074,2.3084,2.3084,2.3084,2.3084,0,2.3268,2.3257,2.3245,2.3236,2.3222,2.3214,2.32,2.3192,2.318,2.3169,2.3162,2.3151,2.3138,2.3125,2.3117,2.31,2.3095,2.309,2.3088,2.3091,2.3092,2.3086,2.3086,2.3083,2.3083,2.3083,2.3084,0,2.3261,2.3253,2.3237,2.3223,2.3219,2.3209,2.3196,2.3187,2.3179,2.3164,2.316,2.3147,2.3131,2.312,2.3098,2.3093,2.3075,2.3072,2.308,2.3079,2.3072,2.3073,2.3051,2.3048,2.306,2.306,2.306,0,2.3253,2.3245,2.323,2.3223,2.3215,2.3204,2.3195,2.3186,2.3177,2.3161,2.3153,2.3137,2.3124,2.3099,2.3086,2.307,2.3067,2.3061,2.3065,2.3068,2.3067,2.3068,2.3067,2.306,2.306,2.306,2.306,0,2.3241,2.3237,2.3226,2.3214,2.3204,2.3193,2.3182,2.3176,2.3164,2.3155,2.3139,2.3129,2.3109,2.3093,2.3075,2.3066,2.3061,2.3059,2.3056,2.306,2.3065,2.3062,2.3079,2.306,2.306,2.306,2.306,2.306,2.3233,2.3225,2.3214,2.3202,2.3193,2.3183,2.3173,2.3164,2.3152,2.3136,2.313,2.3115,2.31,2.3076,2.3066,2.3053,2.3053,2.3049,2.3048,2.3047,2.3048,2.3067,2.3049,2.3049,2.3049,2.3049,2.3049,0,2.3221,2.3214,2.3202,2.3188,2.3178,2.3176,2.3163,2.3154,2.3141,2.3129,2.3117,2.3099,2.3083,2.3069,2.3053,2.3044,2.3042,2.304,2.3041,2.3039,2.3049,2.3053,2.3043,2.3043,2.3043,2.3043,2.3043,2.3043,2.3214,2.32,2.3195,2.3176,2.3168,2.3154,2.3147,2.3137,2.3128,2.3109,2.3097,2.3088,2.3075,2.3057,2.3042,2.3038,2.3033,2.3032,2.3028,2.3037,2.3038,2.3039,2.3043,2.3031,2.3031,2.3019,2.3019,2.3019]}]]